• In Deutschland
  • Länderverzeichnis
  • Für 7 Tage
  • Wassertemperatur
  • Satellitenkarten
  • Wetterkarte
  • Widgets
  • user-avatar
    Anmelden

    Stündliche Wetter Quedlinburg

    Heute, 17 Oktober, Dienstag

    Zeit Temperatur Niederschläge Wind Luftdruck Luftfeuchtigkeit
    00:00 +16°C° 0 mm 3 m/S 755 mmHg 76%
    01:00 +16°C° 0 mm 3 m/S 755 mmHg 75%
    02:00 +16°C° 0 mm 3 m/S 755 mmHg 75%
    03:00 +16°C° 0 mm 3 m/S 755 mmHg 75%
    04:00 +14°C° 0 mm 3 m/S 754 mmHg 75%
    05:00 +14°C° 0 mm 3 m/S 754 mmHg 76%
    06:00 +13°C° 0 mm 3 m/S 754 mmHg 77%
    07:00 +13°C° 0 mm 3 m/S 755 mmHg 79%
    08:00 +16°C° 0 mm 3 m/S 755 mmHg 74%
    09:00 +17°C° 0 mm 3 m/S 755 mmHg 70%
    10:00 +19°C° 0 mm 3 m/S 755 mmHg 65%
    11:00 +20°C° 0 mm 3 m/S 755 mmHg 63%
    12:00 +21°C° 0 mm 2 m/S 755 mmHg 61%
    13:00 +23°C° 0 mm 2 m/S 754 mmHg 59%
    14:00 +23°C° 0 mm 2 m/S 754 mmHg 62%
    15:00 +21°C° 0 mm 2 m/S 753 mmHg 65%
    16:00 +22°C° 0 mm 1 m/S 753 mmHg 67%
    17:00 +21°C° 0 mm 1 m/S 753 mmHg 73%
    18:00 +19°C° 0 mm 1 m/S 753 mmHg 79%
    19:00 +16°C° 0 mm 1 m/S 753 mmHg 84%
    20:00 +16°C° 0 mm 1 m/S 753 mmHg 85%
    21:00 +16°C° 0 mm 1 m/S 753 mmHg 87%
    22:00 +15°C° 0 mm 1 m/S 752 mmHg 88%
    23:00 +15°C° 0 mm 1 m/S 752 mmHg 88%

    Morgen, 18 Oktober, Mittwoch

    Zeit Temperatur Niederschläge Wind Luftdruck Luftfeuchtigkeit
    00:00 +15°C° 0 mm 1 m/S 752 mmHg 89%
    01:00 +14°C° 0 mm 1 m/S 752 mmHg 89%
    02:00 +13°C° 0 mm 0 m/S 752 mmHg 90%
    03:00 +13°C° 0 mm 0 m/S 751 mmHg 90%
    04:00 +12°C° 0 mm 0 m/S 751 mmHg 90%
    05:00 +12°C° 0 mm 0 m/S 751 mmHg 90%
    06:00 +13°C° 0 mm 1 m/S 751 mmHg 90%
    07:00 +13°C° 0 mm 1 m/S 751 mmHg 90%
    08:00 +14°C° 0 mm 1 m/S 751 mmHg 84%
    09:00 +16°C° 0 mm 1 m/S 750 mmHg 77%
    10:00 +19°C° 0 mm 1 m/S 750 mmHg 71%
    11:00 +20°C° 0 mm 1 m/S 750 mmHg 66%
    12:00 +21°C° 0 mm 1 m/S 750 mmHg 62%
    13:00 +21°C° 0 mm 2 m/S 749 mmHg 57%
    14:00 +21°C° 0 mm 1 m/S 749 mmHg 59%
    15:00 +21°C° 0 mm 1 m/S 749 mmHg 61%
    16:00 +21°C° 0 mm 1 m/S 749 mmHg 64%
    17:00 +19°C° 0 mm 1 m/S 749 mmHg 68%
    18:00 +18°C° 0 mm 1 m/S 749 mmHg 72%
    19:00 +15°C° 0 mm 2 m/S 749 mmHg 77%
    20:00 +15°C° 0 mm 2 m/S 749 mmHg 78%
    21:00 +14°C° 0 mm 2 m/S 749 mmHg 79%
    22:00 +14°C° 0 mm 2 m/S 749 mmHg 81%
    23:00 +13°C° 0 mm 2 m/S 749 mmHg 81%

    übermorgen, 19 Oktober, Donnerstag

    Zeit Temperatur Niederschläge Wind Luftdruck Luftfeuchtigkeit
    00:00 +13°C° 0 mm 2 m/S 749 mmHg 82%
    01:00 +13°C° 0 mm 2 m/S 748 mmHg 83%
    02:00 +12°C° 0 mm 2 m/S 748 mmHg 84%
    03:00 +12°C° 0 mm 2 m/S 748 mmHg 85%
    04:00 +12°C° 0 mm 2 m/S 748 mmHg 86%
    05:00 +12°C° 0 mm 2 m/S 748 mmHg 86%
    06:00 +12°C° 0 mm 2 m/S 748 mmHg 86%
    07:00 +12°C° 0 mm 2 m/S 748 mmHg 86%
    08:00 +13°C° 0 mm 2 m/S 748 mmHg 79%
    09:00 +14°C° 0 mm 3 m/S 748 mmHg 72%
    10:00 +17°C° 0 mm 3 m/S 748 mmHg 65%
    11:00 +18°C° 0 mm 3 m/S 748 mmHg 62%
    12:00 +19°C° 0 mm 3 m/S 748 mmHg 58%
    13:00 +21°C° 0 mm 4 m/S 748 mmHg 55%
    14:00 +20°C° 0 mm 3 m/S 748 mmHg 58%
    15:00 +20°C° 0 mm 3 m/S 748 mmHg 61%
    16:00 +20°C° 0 mm 2 m/S 747 mmHg 64%
    17:00 +18°C° 0 mm 2 m/S 747 mmHg 69%
    18:00 +17°C° 0 mm 2 m/S 748 mmHg 73%
    19:00 +16°C° 0 mm 3 m/S 748 mmHg 77%
    20:00 +16°C° 0 mm 3 m/S 748 mmHg 76%
    21:00 +16°C° 0 mm 3 m/S 748 mmHg 75%
    22:00 +16°C° 0 mm 3 m/S 748 mmHg 74%
    23:00 +16°C° 0 mm 3 m/S 748 mmHg 74%

    20 Oktober, Freitag

    Zeit Temperatur Niederschläge Wind Luftdruck Luftfeuchtigkeit
    00:00 +14°C° 0 mm 3 m/S 748 mmHg 73%
    01:00 +14°C° 0 mm 3 m/S 747 mmHg 73%
    02:00 +14°C° 0,1 mm 4 m/S 747 mmHg 73%
    03:00 +14°C° 0,1 mm 4 m/S 747 mmHg 72%
    04:00 +15°C° 0,1 mm 4 m/S 747 mmHg 71%
    05:00 +14°C° 0,2 mm 4 m/S 747 mmHg 72%
    06:00 +14°C° 0,2 mm 5 m/S 746 mmHg 72%
    07:00 +14°C° 0,2 mm 5 m/S 746 mmHg 72%
    08:00 +15°C° 0 mm 6 m/S 746 mmHg 70%
    09:00 +16°C° 0 mm 7 m/S 747 mmHg 69%
    10:00 +17°C° 0 mm 8 m/S 747 mmHg 67%
    11:00 +17°C° 0 mm 8 m/S 747 mmHg 66%
    12:00 +18°C° 0 mm 8 m/S 747 mmHg 65%
    13:00 +18°C° 0 mm 8 m/S 747 mmHg 63%
    14:00 +18°C° 0 mm 7 m/S 747 mmHg 64%
    15:00 +17°C° 0 mm 6 m/S 748 mmHg 64%
    16:00 +17°C° 0 mm 5 m/S 748 mmHg 65%
    17:00 +15°C° 0 mm 5 m/S 748 mmHg 69%
    18:00 +14°C° 0 mm 5 m/S 748 mmHg 73%
    19:00 +13°C° 0 mm 5 m/S 749 mmHg 77%
    20:00 +13°C° 0 mm 4 m/S 749 mmHg 81%
    21:00 +12°C° 0 mm 4 m/S 749 mmHg 84%
    22:00 +12°C° 0 mm 4 m/S 749 mmHg 87%
    23:00 +12°C° 0 mm 3 m/S 749 mmHg 88%

    21 Oktober, Samstag

    Zeit Temperatur Niederschläge Wind Luftdruck Luftfeuchtigkeit
    00:00 +13°C° 0 mm 3 m/S 749 mmHg 89%
    01:00 +13°C° 0 mm 3 m/S 749 mmHg 89%
    02:00 +13°C° 0,5 mm 3 m/S 748 mmHg 89%
    03:00 +14°C° 0,5 mm 3 m/S 748 mmHg 88%
    04:00 +14°C° 0,5 mm 3 m/S 748 mmHg 88%
    05:00 +14°C° 0 mm 3 m/S 748 mmHg 86%
    06:00 +14°C° 0 mm 3 m/S 747 mmHg 85%
    07:00 +14°C° 0 mm 4 m/S 747 mmHg 83%
    08:00 +15°C° 0 mm 4 m/S 747 mmHg 79%
    09:00 +16°C° 0 mm 5 m/S 747 mmHg 76%
    10:00 +17°C° 0 mm 6 m/S 747 mmHg 72%
    11:00 +19°C° 0,4 mm 6 m/S 747 mmHg 73%
    12:00 +19°C° 0,4 mm 5 m/S 747 mmHg 74%
    13:00 +19°C° 0,4 mm 5 m/S 746 mmHg 76%
    14:00 +17°C° 1,5 mm 5 m/S 746 mmHg 80%
    15:00 +16°C° 1,5 mm 5 m/S 746 mmHg 84%
    16:00 +15°C° 1,5 mm 5 m/S 747 mmHg 88%
    17:00 +15°C° 0,5 mm 5 m/S 747 mmHg 88%
    18:00 +15°C° 0,5 mm 4 m/S 747 mmHg 89%
    19:00 +14°C° 0,5 mm 4 m/S 747 mmHg 89%
    20:00 +14°C° 0 mm 4 m/S 748 mmHg 87%
    21:00 +13°C° 0 mm 4 m/S 748 mmHg 86%
    22:00 +13°C° 0 mm 4 m/S 748 mmHg 85%
    23:00 +12°C° 0 mm 4 m/S 748 mmHg 85%

    22 Oktober, Sonntag

    Zeit Temperatur Niederschläge Wind Luftdruck Luftfeuchtigkeit
    00:00 +11°C° 0 mm 4 m/S 748 mmHg 86%
    01:00 +11°C° 0 mm 4 m/S 748 mmHg 87%
    02:00 +10°C° 0 mm 4 m/S 748 mmHg 87%
    03:00 +10°C° 0 mm 4 m/S 748 mmHg 87%
    04:00 +10°C° 0 mm 4 m/S 748 mmHg 87%
    05:00 +10°C° 0 mm 4 m/S 748 mmHg 87%
    06:00 +8°C° 0 mm 4 m/S 747 mmHg 87%
    07:00 +8°C° 0 mm 4 m/S 747 mmHg 87%
    08:00 +9°C° 0 mm 5 m/S 748 mmHg 81%
    09:00 +10°C° 0 mm 6 m/S 748 mmHg 76%
    10:00 +10°C° 0 mm 7 m/S 748 mmHg 71%
    11:00 +11°C° 0,1 mm 7 m/S 748 mmHg 68%
    12:00 +11°C° 0,1 mm 7 m/S 748 mmHg 66%
    13:00 +11°C° 0,1 mm 7 m/S 747 mmHg 64%
    14:00 +11°C° 0 mm 7 m/S 747 mmHg 64%
    15:00 +10°C° 0 mm 6 m/S 748 mmHg 65%
    16:00 +10°C° 0 mm 6 m/S 748 mmHg 65%
    17:00 +9°C° 0 mm 6 m/S 748 mmHg 67%
    18:00 +9°C° 0 mm 6 m/S 748 mmHg 69%
    19:00 +8°C° 0 mm 5 m/S 748 mmHg 71%
    20:00 +8°C° 0,1 mm 6 m/S 748 mmHg 72%
    21:00 +8°C° 0,1 mm 7 m/S 748 mmHg 73%
    22:00 +8°C° 0,1 mm 7 m/S 748 mmHg 74%
    23:00 +8°C° 0,1 mm 7 m/S 748 mmHg 75%
    Mehr zeigen